CW5306 Weather Reports


time (UTC)temp
C
wind
direction
speed
KPH
gust
KPH
rain 1hr
cm
rain 24hr
cm
rain mn
cm
humidity
%
barometer
mb
20260504020715 25 90 12.9 24.1 0.00 0.38 0.38 76 1017.2
20260504020448 25 133 9.7 24.1 0.00 0.38 0.38 76 1017.1
20260504015716 25 134 12.9 24.1 0.00 0.38 0.38 77 1017.0
20260504015217 25 82 12.9 22.5 0.00 0.38 0.38 77 1017.0
20260504014715 25 73 8.0 24.1 0.00 0.38 0.38 75 1017.2
20260504014446 25 115 9.7 24.1 0.00 0.38 0.38 74 1016.9
20260504013715 25 72 9.7 22.5 0.00 0.38 0.38 74 1017.1
20260504013221 25 102 9.7 24.1 0.00 0.38 0.38 73 1017.1
20260504013215 25 74 11.3 24.1 0.00 0.38 0.38 74 1017.1
20260504012203 25 52 4.8 20.9 0.00 0.38 0.38 74 1017.1
20260504011704 25 125 8.0 32.2 0.00 0.38 0.38 74 1017.2
20260504011203 25 109 17.7 32.2 0.03 0.38 0.38 76 1016.8
20260504010704 25 64 0.0 22.5 0.03 0.38 0.38 76 1017.1
20260504010204 25 101 3.2 22.5 0.03 0.38 0.38 75 1017.0
20260504005704 25 92 14.5 24.1 0.03 0.38 0.38 75 1016.9
20260504005204 25 95 14.5 27.4 0.03 0.38 0.38 77 1017.0
20260504004703 25 70 4.8 27.4 0.03 0.38 0.38 79 1017.0
20260504004151 24 95 14.5 25.7 0.03 0.38 0.38 82 1017.1
20260504003641 24 97 6.4 25.7 0.03 0.38 0.38 83 1017.1
20260504003127 23 38 14.5 30.6 0.03 0.38 0.38 82 1017.1
20260504002628 23 99 17.7 30.6 0.03 0.38 0.38 86 1017.1
20260504002127 23 58 9.7 30.6 0.03 0.38 0.38 87 1017.1
20260504001629 23 83 14.5 27.4 0.03 0.38 0.38 87 1017.2
20260504001127 23 100 16.1 32.2 0.00 0.36 0.36 84 1017.3
20260504000627 24 52 20.9 32.2 0.00 0.36 0.36 80 1017.3
20260504000128 26 47 17.7 32.2 0.00 0.33 0.33 75 1017.5
20260503235628 26 84 14.5 24.1 0.00 0.33 0.33 73 1017.3
20260503235359 25 131 1.6 25.7 0.00 0.33 0.33 72 1017.4
20260503234628 25 93 4.8 25.7 0.00 0.33 0.33 73 1017.4
20260503234127 26 140 9.7 24.1 0.00 0.33 0.33 73 1017.3
20260503233627 26 32 16.1 24.1 0.00 0.33 0.33 72 1017.2
20260503233127 26 69 14.5 24.1 0.00 0.33 0.33 74 1017.4
20260503232627 26 78 12.9 24.1 0.00 0.33 0.33 74 1017.3
20260503232127 26 92 0.0 24.1 0.00 0.33 0.33 75 1017.4
20260503231627 26 79 14.5 25.7 0.00 0.33 0.33 73 1017.5
20260503231128 25 38 9.7 25.7 0.00 0.33 0.33 75 1017.4
20260503230628 25 67 16.1 30.6 0.00 0.33 0.33 75 1017.3
20260503230127 26 76 11.3 30.6 0.00 0.33 0.33 74 1017.6
20260503225627 26 88 11.3 25.7 0.00 0.33 0.33 73 1017.3
20260503225133 26 112 9.7 24.1 0.00 0.33 0.33 74 1017.3
20260503225127 26 44 9.7 25.7 0.00 0.33 0.33 74 1017.6
20260503224400 26 71 17.7 24.1 0.00 0.33 0.33 73 1017.7
20260503223858 26 47 1.6 24.1 0.00 0.33 0.33 74 1017.6
20260503223128 26 104 12.9 24.1 0.00 0.33 0.33 75 1017.8
20260503222628 25 79 14.5 24.1 0.00 0.33 0.33 75 1017.7
20260503222128 25 118 16.1 24.1 0.00 0.33 0.33 74 1017.7
20260503221627 25 57 6.4 24.1 0.00 0.33 0.33 75 1017.7
20260503221127 26 91 14.5 20.9 0.00 0.33 0.33 74 1018.0
20260503220627 26 88 9.7 25.7 0.00 0.33 0.33 74 1018.0
20260503220359 25 96 9.7 25.7 0.00 0.33 0.33 75 1018.2
20260503215630 25 91 17.7 24.1 0.00 0.33 0.33 77 1018.1
20260503215127 25 100 14.5 24.1 0.00 0.33 0.33 76 1018.3
20260503214629 26 44 8.0 24.1 0.00 0.33 0.33 76 1018.2
20260503214127 25 93 9.7 30.6 0.00 0.33 0.33 77 1018.4
20260503213627 25 83 11.3 30.6 0.00 0.33 0.33 76 1018.4
20260503213128 25 68 8.0 24.1 0.00 0.33 0.33 77 1018.6
20260503212627 25 84 12.9 24.1 0.00 0.33 0.33 76 1018.5
20260503212128 25 111 14.5 24.1 0.00 0.33 0.33 78 1018.4
20260503211628 25 96 17.7 24.1 0.00 0.33 0.33 77 1018.3
20260503211128 25 69 9.7 22.5 0.18 0.33 0.33 79 1018.6
20260503210629 25 105 14.5 22.5 0.33 0.33 0.33 80 1018.5
20260503210128 25 125 16.1 25.7 0.33 0.33 0.33 82 1018.3
20260503205628 25 76 11.3 25.7 0.33 0.33 0.33 83 1018.5
20260503205130 24 19 17.7 22.5 0.33 0.33 0.33 86 1018.4
20260503204628 23 132 0.0 14.5 0.33 0.33 0.33 88 1018.5
20260503204128 23 162 1.6 14.5 0.33 0.33 0.33 89 1018.7
20260503203628 23 110 8.0 12.9 0.33 0.33 0.33 89 1018.6
20260503203127 22 180 0.0 1.6 0.33 0.33 0.33 91 1018.8
20260503202627 22 175 0.0 0.0 0.33 0.33 0.33 90 1018.5
20260503202127 21 220 0.0 12.9 0.33 0.33 0.33 89 1018.7
20260503201628 21 164 0.0 22.5 0.33 0.33 0.33 89 1018.6
20260503201129 21 168 8.0 22.5 0.15 0.15 0.20 88 1018.8
20260503200628 22 171 9.7 17.7 0.03 0.03 0.03 88 1018.8
20260503200127 22 171 9.7 20.9 0.00 0.00 0.00 87 1018.6
20260503195628 22 189 6.4 20.9 0.00 0.00 0.00 86 1018.5
20260503195130 23 186 8.0 25.7 0.00 0.00 0.00 84 1018.6
20260503194858 23 70 16.1 24.1 0.00 0.00 0.00 79 1018.8
20260503194128 23 185 0.0 24.1 0.00 0.00 0.00 79 1018.5
20260503193622 23 136 6.4 24.1 0.00 0.00 0.00 80 1018.6
20260503193111 23 138 16.1 27.4 0.00 0.00 0.00 82 1018.8
20260503192605 23 114 14.5 27.4 0.00 0.00 0.00 80 1018.8
20260503192112 23 100 19.3 27.4 0.00 0.00 0.00 78 1018.7
20260503192106 23 112 12.9 27.4 0.00 0.00 0.00 80 1018.6
20260503191105 23 94 9.7 27.4 0.00 0.00 0.00 80 1018.6
20260503190605 23 68 19.3 30.6 0.00 0.00 0.00 80 1018.6
20260503190556 23 11 12.9 32.2 0.00 0.00 0.00 81 1018.5
20260503185555 24 68 14.5 32.2 0.00 0.00 0.00 81 1018.5
20260503185041 24 92 16.1 24.1 0.00 0.00 0.00 81 1018.5
20260503184529 24 145 1.6 22.5 0.00 0.00 0.00 81 1018.7
20260503184029 24 93 4.8 22.5 0.00 0.00 0.00 80 1018.6
20260503183530 24 113 8.0 25.7 0.00 0.00 0.00 80 1018.4
20260503183030 24 115 8.0 25.7 0.00 0.00 0.00 81 1018.4
20260503182536 24 51 12.9 32.2 0.00 0.00 0.00 79 1018.3
20260503182530 24 83 14.5 32.2 0.00 0.00 0.00 80 1018.5
20260503181529 24 78 14.5 27.4 0.00 0.00 0.00 78 1018.4
20260503181250 25 85 16.1 25.7 0.00 0.00 0.00 77 1018.2
20260503180748 25 55 9.7 25.7 0.00 0.00 0.00 77 1018.3
20260503180024 24 73 6.4 25.7 0.00 0.00 0.00 79 1018.3
20260503180018 25 47 9.7 22.5 0.00 0.00 0.00 78 1018.3
20260503175018 24 83 12.9 25.7 0.00 0.00 0.00 80 1018.1
20260503174519 23 81 12.9 24.1 0.00 0.00 0.00 79 1018.1
20260503174017 23 108 8.0 24.1 0.00 0.00 0.00 80 1017.9
20260503173505 23 82 9.7 22.5 0.00 0.00 0.00 80 1018.1
20260503173005 23 39 9.7 22.5 0.00 0.00 0.00 80 1017.9
20260503172506 23 71 9.7 20.9 0.00 0.00 0.00 80 1017.8
20260503172006 23 82 9.7 22.5 0.00 0.00 0.00 80 1017.8
20260503171506 23 110 8.0 22.5 0.00 0.00 0.00 80 1017.7
20260503171006 23 47 12.9 16.1 0.00 0.00 0.00 80 1017.7
20260503170506 23 117 6.4 20.9 0.00 0.00 0.00 80 1017.6
20260503150955 22 109 4.8 16.1 0.00 0.00 0.00 81 1016.9
20260503150454 22 142 9.7 16.1 0.00 0.00 0.00 82 1017.0
20260503140212 22 102 8.0 22.5 0.00 0.00 0.00 83 1017.2
20260503131213 22 72 9.7 22.5 0.00 0.00 0.00 83 1017.0
20260503130713 22 70 1.6 16.1 0.00 0.00 0.00 83 1016.9
20260503110442 23 89 11.3 22.5 0.00 0.00 0.00 81 1017.9
20260503090441 23 103 12.9 22.5 0.00 0.00 0.00 79 1017.8
20260503090213 23 100 6.4 22.5 0.00 0.00 0.00 80 1018.1
20260503081447 23 86 6.4 22.5 0.00 0.00 0.00 78 1017.6
20260503081441 23 118 8.0 22.5 0.00 0.00 0.00 78 1017.8
20260503080442 23 96 16.1 24.1 0.00 0.00 0.00 78 1017.8
20260503072942 23 99 12.9 22.5 0.00 0.00 0.00 79 1017.5
20260503072443 23 105 4.8 22.5 0.00 0.00 0.00 78 1017.3
20260503071941 23 103 14.5 25.7 0.00 0.00 0.00 79 1017.3
20260503071442 23 26 6.4 25.7 0.00 0.00 0.00 79 1017.3
20260503070941 23 85 14.5 25.7 0.00 0.00 0.00 79 1017.1
20260503070441 23 46 11.3 25.7 0.00 0.00 0.00 78 1017.3
20260503054941 23 120 16.1 24.1 0.00 0.00 0.00 78 1016.3
20260503054447 23 77 9.7 25.7 0.00 0.00 0.00 78 1016.1
20260503054441 23 48 9.7 25.7 0.00 0.00 0.00 78 1016.4
20260503053443 23 112 12.9 25.7 0.00 0.00 0.00 77 1016.1
20260503052941 23 54 11.3 25.7 0.00 0.00 0.00 77 1015.9
20260503052712 23 76 12.9 20.9 0.00 0.00 0.00 77 1015.9
20260503051941 23 115 9.7 20.9 0.00 0.00 0.00 78 1015.8
20260503051441 23 98 16.1 24.1 0.00 0.00 0.00 77 1016.0
20260503050943 23 84 11.3 24.1 0.00 0.00 0.00 77 1015.8
20260503050441 23 104 14.5 25.7 0.00 0.00 0.00 77 1015.7
20260503045947 23 138 12.9 25.7 0.00 0.00 0.00 79 1015.6
20260503045941 23 73 0.0 25.7 0.00 0.00 0.00 79 1015.7
20260503044942 23 94 9.7 25.7 0.00 0.00 0.00 79 1015.5
20260503044443 23 81 11.3 38.6 0.00 0.00 0.00 80 1015.5
20260503043941 23 40 11.3 38.6 0.00 0.00 0.00 80 1015.2
20260503043442 23 103 14.5 25.7 0.00 0.00 0.00 79 1015.4
20260503042942 23 98 20.9 24.1 0.00 0.00 0.00 78 1015.1
20260503042445 23 70 11.3 24.1 0.00 0.00 0.00 78 1015.2
20260503041941 23 112 11.3 22.5 0.00 0.00 0.00 77 1015.0
20260503041442 23 102 6.4 24.1 0.00 0.00 0.00 77 1015.1
20260503040941 23 128 8.0 24.1 0.00 0.00 0.00 77 1015.1
20260503040440 23 104 16.1 24.1 0.00 0.00 0.00 77 1015.2
20260503035940 24 122 11.3 24.1 0.00 0.00 0.00 75 1015.1
20260503035442 24 105 8.0 24.1 0.00 0.00 0.00 76 1015.2
20260503034940 24 103 9.7 24.1 0.00 0.00 0.00 76 1015.0
20260503034441 24 84 14.5 24.1 0.00 0.00 0.00 74 1015.0
20260503033941 24 86 9.7 22.5 0.00 0.00 0.00 75 1014.8
20260503033441 24 72 16.1 22.5 0.00 0.00 0.00 75 1014.9
20260503032941 24 120 6.4 22.5 0.00 0.00 0.00 75 1015.0
20260503032442 24 108 12.9 22.5 0.00 0.00 0.00 75 1015.0
20260503032211 24 87 9.7 22.5 0.00 0.00 0.00 75 1014.8
20260503031440 24 88 9.7 22.5 0.00 0.00 0.00 76 1014.7
20260503030940 25 76 16.1 22.5 0.00 0.00 0.00 75 1015.0
20260503030712 25 70 4.8 25.7 0.00 0.00 0.00 74 1014.8
20260503030212 25 110 3.2 25.7 0.00 0.00 0.00 73 1015.0
20260503025712 25 117 9.7 24.1 0.00 0.00 0.00 73 1014.9
20260503024941 25 88 17.7 24.1 0.00 0.00 0.00 72 1015.0
20260503024442 25 69 14.5 24.1 0.00 0.00 0.00 72 1015.1
20260503023940 25 128 14.5 24.1 0.00 0.00 0.00 72 1015.0
20260503023441 25 102 4.8 24.1 0.00 0.00 0.00 73 1014.9
20260503022942 25 99 11.3 24.1 0.00 0.00 0.00 73 1014.9
20260503022440 25 90 12.9 22.5 0.00 0.00 0.00 74 1014.7
20260503021941 25 91 12.9 22.5 0.00 0.00 0.00 73 1014.9
20260503021442 25 98 8.0 24.1 0.00 0.00 0.00 73 1014.5